Time,TemperatureF,DewpointF,PressureIn,WindDirection,WindDirectionDegrees,WindSpeedMPH,WindSpeedGustMPH,Humidity,HourlyPrecipIn,Conditions,Clouds,dailyrainin,SoftwareType,DateUTC
2013-07-18 00:00:00,76.0,70.0,-100.00,SSW,212,3.0,5.0,80,0.00,,,-99.99,,2013-07-18 04:00:00,
2013-07-18 00:32:00,76.0,70.0,-100.00,SSW,212,3.0,5.0,80,0.00,,,-99.99,,2013-07-18 04:32:00,
2013-07-18 00:43:00,76.0,70.0,-100.00,SSW,212,3.0,5.0,80,0.00,,,-99.99,,2013-07-18 04:43:00,
2013-07-18 00:52:00,76.0,70.0,-100.00,SSW,212,3.0,5.0,80,0.00,,,-99.99,,2013-07-18 04:52:00,
2013-07-18 01:00:00,76.0,70.0,-100.00,SW,224,3.0,7.0,79,0.00,,,-99.99,,2013-07-18 05:00:00,
2013-07-18 01:43:00,76.0,70.0,-100.00,SW,224,3.0,7.0,79,0.00,,,-99.99,,2013-07-18 05:43:00,
2013-07-18 01:52:00,76.0,70.0,-100.00,SW,224,3.0,7.0,79,0.00,,,-99.99,,2013-07-18 05:52:00,
2013-07-18 02:00:00,77.0,70.0,-100.00,WSW,237,4.0,7.0,79,0.00,,,-99.99,,2013-07-18 06:00:00,
2013-07-18 02:32:00,77.0,70.0,-100.00,WSW,237,4.0,7.0,79,0.00,,,-99.99,,2013-07-18 06:32:00,
2013-07-18 02:43:00,77.0,70.0,-100.00,WSW,237,4.0,7.0,79,0.00,,,-99.99,,2013-07-18 06:43:00,
2013-07-18 02:52:00,77.0,70.0,-100.00,WSW,237,4.0,7.0,79,0.00,,,-99.99,,2013-07-18 06:52:00,
2013-07-18 03:00:00,77.0,70.0,-100.00,WSW,254,4.0,8.0,79,0.00,,,-99.99,,2013-07-18 07:00:00,
2013-07-18 03:32:00,77.0,70.0,-100.00,WSW,254,4.0,8.0,79,0.00,,,-99.99,,2013-07-18 07:32:00,
2013-07-18 03:42:00,77.0,70.0,-100.00,WSW,254,4.0,8.0,79,0.00,,,-99.99,,2013-07-18 07:42:00,
2013-07-18 03:52:00,77.0,70.0,-100.00,WSW,254,4.0,8.0,79,0.00,,,-99.99,,2013-07-18 07:52:00,
2013-07-18 04:00:00,76.0,71.0,-100.00,SW,231,2.0,7.0,83,0.00,,,-99.99,,2013-07-18 08:00:00,
2013-07-18 04:32:00,76.0,71.0,-100.00,SW,231,2.0,7.0,83,0.00,,,-99.99,,2013-07-18 08:32:00,
2013-07-18 04:42:00,76.0,71.0,-100.00,SW,231,2.0,7.0,83,0.00,,,-99.99,,2013-07-18 08:42:00,
2013-07-18 04:52:00,76.0,71.0,-100.00,SW,231,2.0,7.0,83,0.00,,,-99.99,,2013-07-18 08:52:00,
2013-07-18 05:00:00,76.0,72.0,-100.00,SW,217,3.0,6.0,86,0.00,,,-99.99,,2013-07-18 09:00:00,
2013-07-18 05:42:00,76.0,72.0,-100.00,SW,217,3.0,6.0,86,0.00,,,-99.99,,2013-07-18 09:42:00,
2013-07-18 05:52:00,76.0,72.0,-100.00,SW,217,3.0,6.0,86,0.00,,,-99.99,,2013-07-18 09:52:00,
2013-07-18 06:00:00,75.0,72.0,-100.00,WSW,240,3.0,7.0,88,0.00,,,-99.99,,2013-07-18 10:00:00,
2013-07-18 06:32:00,75.0,72.0,-100.00,WSW,240,3.0,7.0,88,0.00,,,-99.99,,2013-07-18 10:32:00,
2013-07-18 06:43:00,75.0,72.0,-100.00,WSW,240,3.0,7.0,88,0.00,,,-99.99,,2013-07-18 10:43:00,
2013-07-18 06:52:00,75.0,72.0,-100.00,WSW,240,3.0,7.0,88,0.00,,,-99.99,,2013-07-18 10:52:00,
2013-07-18 07:00:00,78.0,73.0,-100.00,SSW,213,2.0,7.0,86,0.00,,,-99.99,,2013-07-18 11:00:00,
2013-07-18 07:43:00,78.0,73.0,-100.00,SSW,213,2.0,7.0,86,0.00,,,-99.99,,2013-07-18 11:43:00,
2013-07-18 07:52:00,78.0,73.0,-100.00,SSW,213,2.0,7.0,86,0.00,,,-99.99,,2013-07-18 11:52:00,
2013-07-18 08:00:00,82.0,74.0,-100.00,NW,310,4.0,9.0,75,0.00,,,-99.99,,2013-07-18 12:00:00,
2013-07-18 08:33:00,82.0,74.0,-100.00,NW,310,4.0,9.0,75,0.00,,,-99.99,,2013-07-18 12:33:00,
2013-07-18 08:42:00,82.0,74.0,-100.00,NW,310,4.0,9.0,75,0.00,,,-99.99,,2013-07-18 12:42:00,
2013-07-18 08:52:00,82.0,74.0,-100.00,NW,310,4.0,9.0,75,0.00,,,-99.99,,2013-07-18 12:52:00,
2013-07-18 09:00:00,85.0,72.0,-100.00,NNE,20,3.0,8.0,66,0.00,,,-99.99,,2013-07-18 13:00:00,
2013-07-18 09:33:00,85.0,72.0,-100.00,NNE,20,3.0,8.0,66,0.00,,,-99.99,,2013-07-18 13:33:00,
2013-07-18 09:43:00,85.0,72.0,-100.00,NNE,20,3.0,8.0,66,0.00,,,-99.99,,2013-07-18 13:43:00,
2013-07-18 09:53:00,85.0,72.0,-100.00,NNE,20,3.0,8.0,66,0.00,,,-99.99,,2013-07-18 13:53:00,
2013-07-18 10:00:00,89.0,74.0,-100.00,NNW,328,1.0,8.0,61,0.00,,,-99.99,,2013-07-18 14:00:00,
2013-07-18 10:43:00,89.0,74.0,-100.00,NNW,328,1.0,8.0,61,0.00,,,-99.99,,2013-07-18 14:43:00,
2013-07-18 10:53:00,89.0,74.0,-100.00,NNW,328,1.0,8.0,61,0.00,,,-99.99,,2013-07-18 14:53:00,
2013-07-18 11:00:00,91.0,72.0,-100.00,ENE,59,1.0,7.0,55,0.00,,,-99.99,,2013-07-18 15:00:00,
2013-07-18 11:43:00,91.0,72.0,-100.00,ENE,59,1.0,7.0,55,0.00,,,-99.99,,2013-07-18 15:43:00,
2013-07-18 11:53:00,91.0,72.0,-100.00,ENE,59,1.0,7.0,55,0.00,,,-99.99,,2013-07-18 15:53:00,
2013-07-18 12:00:00,92.0,71.0,-100.00,NNE,26,1.0,6.0,51,0.00,,,-99.99,,2013-07-18 16:00:00,
2013-07-18 12:32:00,92.0,71.0,-100.00,NNE,26,1.0,6.0,51,0.00,,,-99.99,,2013-07-18 16:32:00,
2013-07-18 12:42:00,92.0,71.0,-100.00,NNE,26,1.0,6.0,51,0.00,,,-99.99,,2013-07-18 16:42:00,
2013-07-18 12:52:00,92.0,71.0,-100.00,NNE,26,1.0,6.0,51,0.00,,,-99.99,,2013-07-18 16:52:00,
2013-07-18 13:00:00,94.0,70.0,-100.00,NNW,346,3.0,8.0,46,0.00,,,-99.99,,2013-07-18 17:00:00,
2013-07-18 13:33:00,94.0,70.0,-100.00,NNW,346,3.0,8.0,46,0.00,,,-99.99,,2013-07-18 17:33:00,
2013-07-18 13:43:00,94.0,70.0,-100.00,NNW,346,3.0,8.0,46,0.00,,,-99.99,,2013-07-18 17:43:00,
2013-07-18 13:52:00,94.0,70.0,-100.00,NNW,346,3.0,8.0,46,0.00,,,-99.99,,2013-07-18 17:52:00,
2013-07-18 14:00:00,94.0,72.0,-100.00,WSW,240,6.0,9.0,50,0.00,,,-99.99,,2013-07-18 18:00:00,
2013-07-18 14:33:00,94.0,72.0,-100.00,WSW,240,6.0,9.0,50,0.00,,,-99.99,,2013-07-18 18:33:00,
2013-07-18 14:43:00,94.0,72.0,-100.00,WSW,240,6.0,9.0,50,0.00,,,-99.99,,2013-07-18 18:43:00,
2013-07-18 14:52:00,94.0,72.0,-100.00,WSW,240,6.0,9.0,50,0.00,,,-99.99,,2013-07-18 18:52:00,
2013-07-18 15:00:00,95.0,73.0,-100.00,West,260,3.0,9.0,49,0.00,,,-99.99,,2013-07-18 19:00:00,
2013-07-18 15:43:00,95.0,73.0,-100.00,West,260,3.0,9.0,49,0.00,,,-99.99,,2013-07-18 19:43:00,
2013-07-18 15:53:00,95.0,73.0,-100.00,West,260,3.0,9.0,49,0.00,,,-99.99,,2013-07-18 19:53:00,
2013-07-18 16:00:00,95.0,72.0,-100.00,West,265,4.0,11.0,47,0.00,,,-99.99,,2013-07-18 20:00:00,
2013-07-18 16:32:00,95.0,72.0,-100.00,West,265,4.0,11.0,47,0.00,,,-99.99,,2013-07-18 20:32:00,
2013-07-18 16:43:00,95.0,72.0,-100.00,West,265,4.0,11.0,47,0.00,,,-99.99,,2013-07-18 20:43:00,
2013-07-18 16:52:00,95.0,72.0,-100.00,West,265,4.0,11.0,47,0.00,,,-99.99,,2013-07-18 20:52:00,
2013-07-18 17:00:00,95.0,72.0,-100.00,SW,232,5.0,11.0,47,0.00,,,-99.99,,2013-07-18 21:00:00,
2013-07-18 17:32:00,95.0,72.0,-100.00,SW,232,5.0,11.0,47,0.00,,,-99.99,,2013-07-18 21:32:00,
2013-07-18 17:43:00,95.0,72.0,-100.00,SW,232,5.0,11.0,47,0.00,,,-99.99,,2013-07-18 21:43:00,
2013-07-18 17:52:00,95.0,72.0,-100.00,SW,232,5.0,11.0,47,0.00,,,-99.99,,2013-07-18 21:52:00,
2013-07-18 18:00:00,93.0,72.0,-100.00,West,259,9.0,13.0,50,0.00,,,-99.99,,2013-07-18 22:00:00,
2013-07-18 18:32:00,93.0,72.0,-100.00,West,259,9.0,13.0,50,0.00,,,-99.99,,2013-07-18 22:32:00,
2013-07-18 18:43:00,93.0,72.0,-100.00,West,259,9.0,13.0,50,0.00,,,-99.99,,2013-07-18 22:43:00,
2013-07-18 18:53:00,93.0,72.0,-100.00,West,259,9.0,13.0,50,0.00,,,-99.99,,2013-07-18 22:53:00,
2013-07-18 19:00:00,92.0,71.0,-100.00,WSW,248,4.0,13.0,51,0.00,,,-99.99,,2013-07-18 23:00:00,
2013-07-18 19:42:00,92.0,71.0,-100.00,WSW,248,4.0,13.0,51,0.00,,,-99.99,,2013-07-18 23:42:00,
2013-07-18 19:52:00,92.0,71.0,-100.00,WSW,248,4.0,13.0,51,0.00,,,-99.99,,2013-07-18 23:52:00,
2013-07-18 20:00:00,89.0,75.0,-100.00,WSW,243,4.0,9.0,62,0.00,,,-99.99,,2013-07-19 00:00:00,
2013-07-18 20:32:00,89.0,75.0,-100.00,WSW,243,4.0,9.0,62,0.00,,,-99.99,,2013-07-19 00:32:00,
2013-07-18 20:43:00,89.0,75.0,-100.00,WSW,243,4.0,9.0,62,0.00,,,-99.99,,2013-07-19 00:43:00,
2013-07-18 20:52:00,89.0,75.0,-100.00,WSW,243,4.0,9.0,62,0.00,,,-99.99,,2013-07-19 00:52:00,
2013-07-18 21:00:00,86.0,75.0,-100.00,South,187,0.0,9.0,70,0.00,,,-99.99,,2013-07-19 01:00:00,
2013-07-18 21:42:00,86.0,75.0,-100.00,South,187,0.0,9.0,70,0.00,,,-99.99,,2013-07-19 01:42:00,
2013-07-18 21:52:00,86.0,75.0,-100.00,South,187,0.0,9.0,70,0.00,,,-99.99,,2013-07-19 01:52:00,
2013-07-18 22:00:00,82.0,75.0,-100.00,South,190,2.0,4.0,79,0.00,,,-99.99,,2013-07-19 02:00:00,
2013-07-18 22:32:00,82.0,75.0,-100.00,South,190,2.0,4.0,79,0.00,,,-99.99,,2013-07-19 02:32:00,
2013-07-18 22:43:00,82.0,75.0,-100.00,South,190,2.0,4.0,79,0.00,,,-99.99,,2013-07-19 02:43:00,
2013-07-18 22:52:00,82.0,75.0,-100.00,South,190,2.0,4.0,79,0.00,,,-99.99,,2013-07-19 02:52:00,
2013-07-18 23:00:00,82.0,74.0,-100.00,SSW,205,3.0,5.0,78,0.00,,,-99.99,,2013-07-19 03:00:00,
2013-07-18 23:43:00,82.0,74.0,-100.00,SSW,205,3.0,5.0,78,0.00,,,-99.99,,2013-07-19 03:43:00,
2013-07-18 23:52:00,82.0,74.0,-100.00,SSW,205,3.0,5.0,78,0.00,,,-99.99,,2013-07-19 03:52:00,